Regional Weather Roundup
Issued by NWS Sioux Falls, SD

Home | Current Version | Previous Version | Text Only | Print | Product List | Glossary Off
Versions: 1 2 3 4 5 6 7 8 9 10 11 12 13 14 15 16 17 18 19 20 21 22 23 24 25 26 27 28 29 30 31 32 33 34 35 36 37 38 39 40 41 42 43 44 45 46 47 48 49 50

786
ASUS43 KFSD 281410
RWRFSD

WEATHER ROUNDUP FOR SE SOUTH DAKOTA/SW MINNESOTA/NW IOWA
NATIONAL WEATHER SERVICE SIOUX FALLS SD
900 AM CDT TUE MAR 28 2017

NOTE: "FAIR" INDICATES FEW OR NO CLOUDS BELOW 12,000 FEET WITH NO
SIGNIFICANT WEATHER AND OR OBSTRUCTIONS TO VISIBILITY.


SDZ038>040-050-052>070-281500-
SOUTHEAST SOUTH DAKOTA

CITY           SKY/WX    TMP DP  RH WIND       PRES   REMARKS
BROOKINGS      SUNNY     41  36  82 CALM      30.11R
CHAMBERLAIN    CLOUDY    43  42  95 E3        30.07R
HURON          CLOUDY    39  37  92 SE3       30.09R
MADISON        FOG       36  36 100 NE6       30.10R VSB<1/4
MITCHELL       CLOUDY    38  37  97 SE5       30.11R FOG
SIOUX FALLS    PTSUNNY   38  37  97 CALM      30.11R
WINNER         LGT RAIN  47  44  90 SE7       30.05R FOG
YANKTON        CLOUDY   N/A N/A N/A E3        30.10R
$$

MNZ071-072-080-081-089-090-097-098-281500-
SOUTHWEST MINNESOTA

CITY           SKY/WX    TMP DP  RH WIND       PRES   REMARKS
FAIRMONT       SUNNY     40  38  93 CALM      30.13R
JACKSON        SUNNY     39  36  87 CALM      30.12R
LUVERNE        SUNNY     36  34  93 CALM      30.12R
MARSHALL       SUNNY     41  37  86 NW6       30.12R
MONTEVIDEO     MOSUNNY   45  37  76 CALM      30.13S
PIPESTONE      SUNNY     43  37  81 CALM      30.10R
REDWOOD FALLS  PTSUNNY   43  34  70 NE5       30.12R
TRACY          SUNNY     44  40  86 NW6       30.11S
WINDOM         SUNNY     45  39  81 N3        30.11R
WORTHINGTON    SUNNY     42  38  85 N6        30.11R
$$

IAZ001>003-012>014-020>022-031-032-NEZ013-014-SDZ071-281500-
NORTHWEST IOWA

CITY           SKY/WX    TMP DP  RH WIND       PRES   REMARKS
CHEROKEE       CLOUDY    35  35 100 CALM      30.11S
DENISON        CLOUDY    39  39 100 CALM      30.12R FOG
ESTHERVILLE    SUNNY     38  38 100 CALM      30.11R FOG
LE MARS        CLOUDY    37  36  93 CALM      30.12S
ORANGE CITY    SUNNY     39  39 100 CALM      30.11R
SHELDON        SUNNY     39  37  93 CALM      30.10R
SIOUX CITY     MOSUNNY   34  34 100 CALM      30.12R
SPENCER        SUNNY     39  37  92 NE5       30.11R
STORM LAKE     SUNNY     41  39  93 E6        30.10R
$$

ABBREVIATIONS USED IN REMARKS
   TC - TEMPERATURE IN CELSIUS
  WCI - WIND CHILL INDEX
   HX - HEAT INDEX
  VSB - VISIBILITY





USA.gov is the U.S. government's official web portal to all federal, state and local government web resources and services.